Hourly Weather Roundup
Issued by NWS Central Illinois

Home | Current Version | Previous Version | Text Only | Print | Product List | Glossary On
Versions: 1 2 3 4 5 6 7 8 9 10 11 12 13 14 15 16 17 18 19 20 21 22 23 24 25 26 27 28 29 30 31 32 33 34 35 36 37 38 39 40 41 42 43 44 45 46 47 48 49 50
000
NZUS43 KILX 201110
HWRILX

Area Weather Roundup
National Weather Service Lincoln IL
600 AM CDT SUN AUG 20 2017

NOTE:  "FAIR" indicates few or no clouds below 12,000 feet, with
       no sigificant weather and/or obstructions to visibility.


CITY           SKY/WX    TMP DP  RH WIND       PRES   REMARKS
Bloomington    CLEAR     66  64  93 SE8       30.02F
Champaign      CLEAR     64  62  93 E5        30.02R
Danville       PTCLDY    60  60  99 CALM      30.01R
Decatur        CLEAR     63  62  97 E3        30.00F
Effingham      CLEAR     65  65 100 CALM      30.03R
Flora          PTCLDY    69  68  95 CALM      30.01R
Galesburg      CLOUDY    64  62  93 SE5       29.99R
Jacksonville   CLOUDY    64  62  94 CALM      29.98R
Lacon          CLOUDY    61  60  97 CALM      29.98F
Lawrenceville  CLOUDY    69  68  96 NE3       30.02R
Litchfield     PTCLDY    68  66  93 SE3       29.99F
$$


CITY           SKY/WX    TMP DP  RH WIND       PRES   REMARKS
Lincoln        CLEAR     63  63 100 CALM      29.99S
Macomb         CLOUDY    60  59  97 CALM      30.00R
Mattoon        CLEAR     67  67 100 SE7       30.01R
Mt Carmel AP   CLOUDY    68  66  94 CALM      30.02R
Olney-Noble AP MOCLDY    67  65  93 CALM      30.02R
Paris AP         N/A     60  60 100 CALM      30.05R FOG
Peoria         CLOUDY    68  64  87 CALM      29.99S
Pontiac        PTCLDY    60  60  99 CALM      30.02S
Rantoul        CLEAR     66  64  93 E3        30.02F
Robinson       FOG       63  63 100 CALM      30.03R VSB 3/4
Springfield    CLOUDY    68  66  93 CALM      29.99S
Taylorville    CLOUDY    67  67  98 SE5       30.00S
$$

...REGIONAL REPORTS...


CITY           SKY/WX    TMP DP  RH WIND       PRES   REMARKS
Chicago O`Hare PTCLDY    65  57  75 S3        30.02R
Kankakee       CLEAR     59  57  94 CALM      30.04S
Moline         CLOUDY    63  60  90 E5        29.96S
Mount Sterling CLOUDY    64  63  98 CALM      29.98R
Mount Vernon     N/A     67  67 100 CALM      30.01R FOG
Pittsfield     PTCLDY    65  64  96 CALM      30.00R
Quincy         CLOUDY    67  65  93 SW3       29.98R
Rockford       CLEAR     61  58  90 CALM      30.02S
$$


CITY           SKY/WX    TMP DP  RH WIND       PRES   REMARKS
Burlington     CLOUDY    66  66 100 CALM      29.97R
Cedar Rapids   CLOUDY    66  64  93 SE6       29.94F
Des Moines     RAIN      70  67  90 CALM      29.94F FOG
Kirksville     CLOUDY    69  63  81 SE7       29.97R
Ottumwa        LGT RAIN  68  66  93 S5        29.95R
St Louis       MOCLDY    75  70  84 CALM      29.99S
$$


CITY           SKY/WX    TMP DP  RH WIND       PRES   REMARKS
Terre Haute    CLEAR     63  61  93 CALM      30.03R
Evansville     CLEAR     68  67  96 CALM      30.02R FOG
Indianapolis   PTCLDY    69  63  81 E5        30.03R
Lafayette      CLEAR     62  61  96 CALM      30.03R
Madison        MOCLDY    61  59  93 CALM      30.01R
Milwaukee      PTCLDY    65  57  75 SW5       30.02R
$$






USA.gov is the U.S. government's official web portal to all federal, state and local government web resources and services.